Time,TemperatureF,DewpointF,PressureIn,WindDirection,WindDirectionDegrees,WindSpeedMPH,WindSpeedGustMPH,Humidity,HourlyPrecipIn,Conditions,Clouds,dailyrainin,SoftwareType,DateUTC
2013-08-07 00:01:00,59.6,-4.7,28.35,SE,135,0.0,0.0,7,0.00,CLR,SKC,0.00,WeatherDisplay:10.37,2013-08-07 04:01:00,
2013-08-07 00:05:00,59.6,-7.9,28.35,SE,135,0.0,0.0,6,0.00,CLR,SKC,0.00,WeatherDisplay:10.37,2013-08-07 04:05:00,
2013-08-07 00:06:00,59.6,-1.9,28.35,SE,135,0.0,0.0,8,0.00,CLR,SKC,0.00,WeatherDisplay:10.37,2013-08-07 04:06:00,
2013-08-07 00:11:00,59.6,-16.0,28.35,SE,135,0.0,0.0,4,0.00,CLR,SKC,0.00,WeatherDisplay:10.37,2013-08-07 04:11:00,
2013-08-07 00:16:00,59.6,-7.9,28.35,SE,135,0.0,0.0,6,0.00,CLR,SKC,0.00,WeatherDisplay:10.37,2013-08-07 04:16:00,
2013-08-07 00:21:00,59.6,-29.2,28.35,SE,135,0.0,0.0,2,0.00,CLR,SKC,0.00,WeatherDisplay:10.37,2013-08-07 04:21:00,
2013-08-07 00:26:00,59.6,-11.6,28.35,SE,135,0.0,0.0,5,0.00,CLR,SKC,0.00,WeatherDisplay:10.37,2013-08-07 04:26:00,
2013-08-07 00:31:00,58.6,99.9,28.35,SE,135,0.0,0.0,0,0.00,CLR,SKC,0.00,WeatherDisplay:10.37,2013-08-07 04:31:00,
2013-08-07 00:36:00,59.6,-21.6,28.36,SE,135,0.0,0.0,3,0.00,CLR,SKC,0.00,WeatherDisplay:10.37,2013-08-07 04:36:00,
2013-08-07 00:41:00,58.6,99.9,28.36,SE,135,0.0,0.0,0,0.00,CLR,SKC,0.00,WeatherDisplay:10.37,2013-08-07 04:41:00,
2013-08-07 00:46:00,58.6,-42.2,28.36,SE,135,0.0,0.0,1,0.00,CLR,SKC,0.00,WeatherDisplay:10.37,2013-08-07 04:46:00,
2013-08-07 00:51:00,58.6,99.9,28.36,SE,135,0.0,0.0,0,0.00,CLR,SKC,0.00,WeatherDisplay:10.37,2013-08-07 04:51:00,
2013-08-07 00:56:00,58.6,99.9,28.36,SE,135,0.0,0.0,0,0.00,CLR,SKC,0.00,WeatherDisplay:10.37,2013-08-07 04:56:00,
2013-08-07 01:01:00,58.6,99.9,28.36,SE,135,0.0,0.0,0,0.00,CLR,SKC,0.00,WeatherDisplay:10.37,2013-08-07 05:01:00,
2013-08-07 01:06:00,58.6,99.9,28.36,SE,135,0.0,0.0,0,0.00,CLR,SKC,0.00,WeatherDisplay:10.37,2013-08-07 05:06:00,
2013-08-07 01:11:00,58.6,99.9,28.36,SE,135,0.0,0.0,0,0.00,CLR,SKC,0.00,WeatherDisplay:10.37,2013-08-07 05:11:00,
2013-08-07 01:16:00,58.6,99.9,28.36,SE,135,0.0,0.0,0,0.00,CLR,SKC,0.00,WeatherDisplay:10.37,2013-08-07 05:16:00,
2013-08-07 01:21:00,58.6,99.9,28.36,SE,135,0.0,0.0,0,0.00,CLR,SKC,0.00,WeatherDisplay:10.37,2013-08-07 05:21:00,
2013-08-07 01:26:00,58.6,99.9,28.36,SE,135,0.0,0.0,0,0.00,CLR,SKC,0.00,WeatherDisplay:10.37,2013-08-07 05:26:00,
2013-08-07 01:31:00,58.6,99.9,28.36,SE,135,0.0,0.0,0,0.00,CLR,SKC,0.00,WeatherDisplay:10.37,2013-08-07 05:31:00,
2013-08-07 01:36:00,58.6,99.9,28.36,SE,135,0.0,0.0,0,0.00,CLR,SKC,0.00,WeatherDisplay:10.37,2013-08-07 05:36:00,
2013-08-07 01:41:00,58.6,99.9,28.36,SSE,157,0.0,0.0,0,0.00,CLR,SKC,0.00,WeatherDisplay:10.37,2013-08-07 05:41:00,
2013-08-07 01:46:00,59.6,99.9,28.36,SSE,157,0.0,0.0,0,0.00,CLR,SKC,0.00,WeatherDisplay:10.37,2013-08-07 05:46:00,
2013-08-07 01:51:00,59.6,99.9,28.36,SSE,157,0.0,0.0,0,0.00,CLR,SKC,0.00,WeatherDisplay:10.37,2013-08-07 05:51:00,
2013-08-07 01:56:00,59.6,99.9,28.36,SSE,157,0.0,0.0,0,0.00,CLR,SKC,0.00,WeatherDisplay:10.37,2013-08-07 05:56:00,
2013-08-07 02:01:00,59.6,99.9,28.36,SSE,157,0.0,0.0,0,0.00,CLR,SKC,0.00,WeatherDisplay:10.37,2013-08-07 06:01:00,
2013-08-07 02:06:00,59.6,99.9,28.36,SSE,157,0.0,0.0,0,0.00,CLR,SKC,0.00,WeatherDisplay:10.37,2013-08-07 06:06:00,
2013-08-07 02:11:00,59.6,99.9,28.36,SSE,157,0.0,0.0,0,0.00,CLR,SKC,0.00,WeatherDisplay:10.37,2013-08-07 06:11:00,
2013-08-07 02:16:00,59.6,99.9,28.36,SSE,157,0.0,0.0,0,0.00,CLR,SKC,0.00,WeatherDisplay:10.37,2013-08-07 06:16:00,
2013-08-07 02:21:00,59.6,99.9,28.36,SSE,157,0.0,0.0,0,0.00,CLR,SKC,0.00,WeatherDisplay:10.37,2013-08-07 06:21:00,
2013-08-07 02:26:00,60.6,99.9,28.36,South,180,0.0,0.0,0,0.00,CLR,SKC,0.00,WeatherDisplay:10.37,2013-08-07 06:26:00,
2013-08-07 02:31:00,60.6,99.9,28.36,South,180,0.0,0.0,0,0.00,CLR,SKC,0.00,WeatherDisplay:10.37,2013-08-07 06:31:00,
2013-08-07 02:36:00,60.6,99.9,28.36,South,180,0.0,0.0,0,0.00,CLR,SKC,0.00,WeatherDisplay:10.37,2013-08-07 06:36:00,
2013-08-07 02:41:00,60.6,99.9,28.36,South,180,0.0,0.0,0,0.00,CLR,SKC,0.00,WeatherDisplay:10.37,2013-08-07 06:41:00,
2013-08-07 02:46:00,59.6,99.9,28.36,South,180,0.0,0.0,0,0.00,CLR,SKC,0.00,WeatherDisplay:10.37,2013-08-07 06:46:00,
2013-08-07 02:51:00,59.6,99.9,28.36,South,180,0.0,0.0,0,0.00,CLR,SKC,0.00,WeatherDisplay:10.37,2013-08-07 06:51:00,
2013-08-07 02:56:00,59.6,99.9,28.36,South,180,0.0,0.0,0,0.00,CLR,SKC,0.00,WeatherDisplay:10.37,2013-08-07 06:56:00,
2013-08-07 03:01:00,59.6,99.9,28.36,South,180,0.0,0.0,0,0.00,CLR,SKC,0.00,WeatherDisplay:10.37,2013-08-07 07:01:00,
2013-08-07 03:06:00,59.6,99.9,28.36,South,180,0.0,0.0,0,0.00,CLR,SKC,0.00,WeatherDisplay:10.37,2013-08-07 07:06:00,
2013-08-07 03:11:00,59.6,99.9,28.36,South,180,0.0,0.0,0,0.00,CLR,SKC,0.00,WeatherDisplay:10.37,2013-08-07 07:11:00,
2013-08-07 03:16:00,59.6,99.9,28.36,South,180,0.0,0.0,0,0.00,CLR,SKC,0.00,WeatherDisplay:10.37,2013-08-07 07:16:00,
2013-08-07 03:21:00,58.6,99.9,28.36,South,180,0.0,0.0,0,0.00,CLR,SKC,0.00,WeatherDisplay:10.37,2013-08-07 07:21:00,
2013-08-07 03:26:00,58.6,99.9,28.36,South,180,0.0,0.0,0,0.00,CLR,SKC,0.00,WeatherDisplay:10.37,2013-08-07 07:26:00,
2013-08-07 03:31:00,58.6,99.9,28.36,South,180,0.0,0.0,0,0.00,CLR,SKC,0.00,WeatherDisplay:10.37,2013-08-07 07:31:00,
2013-08-07 03:36:00,58.6,99.9,28.36,South,180,0.0,0.0,0,0.00,CLR,SKC,0.00,WeatherDisplay:10.37,2013-08-07 07:36:00,
2013-08-07 03:41:00,58.6,99.9,28.36,South,180,0.0,0.0,0,0.00,CLR,SKC,0.00,WeatherDisplay:10.37,2013-08-07 07:41:00,
2013-08-07 03:46:00,58.6,99.9,28.36,South,180,0.0,0.0,0,0.00,CLR,SKC,0.00,WeatherDisplay:10.37,2013-08-07 07:46:00,
2013-08-07 03:51:00,58.6,99.9,28.36,South,180,0.0,0.0,0,0.00,CLR,SKC,0.00,WeatherDisplay:10.37,2013-08-07 07:51:00,
2013-08-07 03:56:00,58.6,99.9,28.36,South,180,0.0,0.0,0,0.00,CLR,SKC,0.00,WeatherDisplay:10.37,2013-08-07 07:56:00,
2013-08-07 04:01:00,58.6,99.9,28.36,South,180,0.0,0.0,0,0.00,CLR,SKC,0.00,WeatherDisplay:10.37,2013-08-07 08:01:00,
2013-08-07 04:06:00,58.6,99.9,28.37,South,180,0.0,0.0,0,0.00,CLR,SKC,0.00,WeatherDisplay:10.37,2013-08-07 08:06:00,
2013-08-07 04:11:00,58.6,99.9,28.37,South,180,0.0,0.0,0,0.00,CLR,SKC,0.00,WeatherDisplay:10.37,2013-08-07 08:11:00,
2013-08-07 04:16:00,58.6,99.9,28.37,South,180,0.0,0.0,0,0.00,CLR,SKC,0.00,WeatherDisplay:10.37,2013-08-07 08:16:00,
2013-08-07 04:21:00,58.6,99.9,28.37,South,180,0.0,0.0,0,0.00,CLR,SKC,0.00,WeatherDisplay:10.37,2013-08-07 08:21:00,
2013-08-07 04:26:00,58.6,99.9,28.38,South,180,0.0,0.0,0,0.00,CLR,SKC,0.00,WeatherDisplay:10.37,2013-08-07 08:26:00,
2013-08-07 04:31:00,57.6,99.9,28.38,South,180,0.0,0.0,0,0.00,CLR,SKC,0.00,WeatherDisplay:10.37,2013-08-07 08:31:00,
2013-08-07 04:36:00,57.6,99.9,28.38,South,180,0.0,0.0,0,0.00,CLR,SKC,0.00,WeatherDisplay:10.37,2013-08-07 08:36:00,
2013-08-07 04:41:00,57.6,99.9,28.38,South,180,0.0,0.0,0,0.00,CLR,SKC,0.00,WeatherDisplay:10.37,2013-08-07 08:41:00,
2013-08-07 04:46:00,57.6,99.9,28.38,South,180,0.0,0.0,0,0.00,CLR,SKC,0.00,WeatherDisplay:10.37,2013-08-07 08:46:00,
2013-08-07 04:51:00,58.6,99.9,28.38,South,180,0.0,0.0,0,0.00,CLR,SKC,0.00,WeatherDisplay:10.37,2013-08-07 08:51:00,
2013-08-07 04:56:00,57.6,99.9,28.38,South,180,0.0,0.0,0,0.00,CLR,SKC,0.00,WeatherDisplay:10.37,2013-08-07 08:56:00,
2013-08-07 05:01:00,57.6,99.9,28.38,South,180,0.0,0.0,0,0.00,CLR,SKC,0.00,WeatherDisplay:10.37,2013-08-07 09:01:00,
2013-08-07 05:06:00,57.6,99.9,28.38,South,180,0.0,0.0,0,0.00,CLR,SKC,0.00,WeatherDisplay:10.37,2013-08-07 09:06:00,
2013-08-07 05:11:00,57.6,99.9,28.38,South,180,0.0,0.0,0,0.00,CLR,SKC,0.00,WeatherDisplay:10.37,2013-08-07 09:11:00,
2013-08-07 05:16:00,57.6,99.9,28.38,South,180,0.0,0.0,0,0.00,CLR,SKC,0.00,WeatherDisplay:10.37,2013-08-07 09:16:00,
2013-08-07 05:21:00,57.6,99.9,28.38,South,180,0.0,0.0,0,0.00,CLR,SKC,0.00,WeatherDisplay:10.37,2013-08-07 09:21:00,
2013-08-07 05:26:00,57.6,99.9,28.38,South,180,0.0,0.0,0,0.00,CLR,SKC,0.00,WeatherDisplay:10.37,2013-08-07 09:26:00,
2013-08-07 05:31:00,57.6,99.9,28.38,South,180,0.0,0.0,0,0.00,CLR,SKC,0.00,WeatherDisplay:10.37,2013-08-07 09:31:00,
2013-08-07 05:36:00,57.6,99.9,28.38,South,180,0.0,0.0,0,0.00,CLR,SKC,0.00,WeatherDisplay:10.37,2013-08-07 09:36:00,
2013-08-07 05:42:00,57.6,99.9,28.38,South,180,0.0,0.0,0,0.00,CLR,SKC,0.00,WeatherDisplay:10.37,2013-08-07 09:42:00,
2013-08-07 05:47:00,57.6,99.9,28.39,South,180,0.0,0.0,0,0.00,CLR,SKC,0.00,WeatherDisplay:10.37,2013-08-07 09:47:00,
2013-08-07 05:52:00,57.6,99.9,28.39,South,180,0.0,0.0,0,0.00,CLR,SKC,0.00,WeatherDisplay:10.37,2013-08-07 09:52:00,
2013-08-07 05:57:00,57.6,99.9,28.38,South,180,0.0,0.0,0,0.00,CLR,SKC,0.00,WeatherDisplay:10.37,2013-08-07 09:57:00,
2013-08-07 06:02:00,57.6,99.9,28.38,South,180,0.0,0.0,0,0.00,CLR,SKC,0.00,WeatherDisplay:10.37,2013-08-07 10:02:00,
2013-08-07 06:07:00,57.6,99.9,28.38,South,180,0.0,0.0,0,0.00,CLR,SKC,0.00,WeatherDisplay:10.37,2013-08-07 10:07:00,
2013-08-07 06:12:00,57.6,99.9,28.38,South,180,0.0,0.0,0,0.00,CLR,SKC,0.00,WeatherDisplay:10.37,2013-08-07 10:12:00,
2013-08-07 06:17:00,57.6,99.9,28.39,South,180,0.0,0.0,0,0.00,CLR,SKC,0.00,WeatherDisplay:10.37,2013-08-07 10:17:00,
2013-08-07 06:22:00,58.6,99.9,28.39,South,180,0.0,0.0,0,0.00,CLR,SKC,0.00,WeatherDisplay:10.37,2013-08-07 10:22:00,
2013-08-07 06:27:00,58.6,99.9,28.39,South,180,0.0,0.0,0,0.00,CLR,SKC,0.00,WeatherDisplay:10.37,2013-08-07 10:27:00,
2013-08-07 06:32:00,58.6,99.9,28.39,South,180,0.0,0.0,0,0.00,CLR,SKC,0.00,WeatherDisplay:10.37,2013-08-07 10:32:00,
2013-08-07 06:37:00,58.6,99.9,28.39,South,180,0.0,0.0,0,0.00,CLR,SKC,0.00,WeatherDisplay:10.37,2013-08-07 10:37:00,
2013-08-07 06:42:00,58.6,99.9,28.39,South,180,0.0,0.0,0,0.00,CLR,SKC,0.00,WeatherDisplay:10.37,2013-08-07 10:42:00,
2013-08-07 06:47:00,59.6,99.9,28.39,South,180,0.0,0.0,0,0.00,CLR,SKC,0.00,WeatherDisplay:10.37,2013-08-07 10:47:00,
2013-08-07 06:52:00,59.6,99.9,28.39,South,180,0.0,0.0,0,0.00,CLR,SKC,0.00,WeatherDisplay:10.37,2013-08-07 10:52:00,
2013-08-07 06:57:00,59.6,99.9,28.39,South,180,0.0,0.0,0,0.00,CLR,SKC,0.00,WeatherDisplay:10.37,2013-08-07 10:57:00,
2013-08-07 07:02:00,59.6,99.9,28.39,South,180,0.0,0.0,0,0.00,CLR,SKC,0.00,WeatherDisplay:10.37,2013-08-07 11:02:00,
2013-08-07 07:07:00,60.6,99.9,28.39,South,180,0.0,0.0,0,0.00,CLR,SKC,0.00,WeatherDisplay:10.37,2013-08-07 11:07:00,
2013-08-07 07:12:00,60.6,99.9,28.39,South,180,0.0,0.0,0,0.00,CLR,SKC,0.00,WeatherDisplay:10.37,2013-08-07 11:12:00,
2013-08-07 07:17:00,61.6,99.9,28.40,South,180,0.0,0.0,0,0.00,CLR,SKC,0.00,WeatherDisplay:10.37,2013-08-07 11:17:00,
2013-08-07 07:22:00,61.6,99.9,28.40,South,180,0.0,0.0,0,0.00,CLR,SKC,0.00,WeatherDisplay:10.37,2013-08-07 11:22:00,
2013-08-07 07:27:00,62.6,99.9,28.39,South,180,0.0,0.0,0,0.00,CLR,SKC,0.00,WeatherDisplay:10.37,2013-08-07 11:27:00,
2013-08-07 07:32:00,62.6,99.9,28.39,South,180,0.0,0.0,0,0.00,CLR,SKC,0.00,WeatherDisplay:10.37,2013-08-07 11:32:00,
2013-08-07 07:37:00,63.6,99.9,28.39,South,180,0.0,0.0,0,0.00,CLR,SKC,0.00,WeatherDisplay:10.37,2013-08-07 11:37:00,
2013-08-07 07:42:00,63.6,99.9,28.39,South,180,0.0,0.0,0,0.00,CLR,SKC,0.00,WeatherDisplay:10.37,2013-08-07 11:42:00,
2013-08-07 07:47:00,63.6,99.9,28.39,South,180,0.0,0.0,0,0.00,CLR,SKC,0.00,WeatherDisplay:10.37,2013-08-07 11:47:00,
2013-08-07 07:52:00,64.6,99.9,28.39,South,180,0.0,0.0,0,0.00,CLR,SKC,0.00,WeatherDisplay:10.37,2013-08-07 11:52:00,
2013-08-07 07:57:00,64.6,99.9,28.38,South,180,0.0,0.0,0,0.00,CLR,SKC,0.00,WeatherDisplay:10.37,2013-08-07 11:57:00,
2013-08-07 08:02:00,65.6,99.9,28.38,South,180,0.0,0.0,0,0.00,CLR,SKC,0.00,WeatherDisplay:10.37,2013-08-07 12:02:00,
2013-08-07 08:07:00,65.6,99.9,28.38,South,180,0.0,0.0,0,0.00,CLR,SKC,0.00,WeatherDisplay:10.37,2013-08-07 12:07:00,
2013-08-07 08:12:00,65.6,99.9,28.38,South,180,0.0,0.0,0,0.00,CLR,SKC,0.00,WeatherDisplay:10.37,2013-08-07 12:12:00,
2013-08-07 08:17:00,65.6,99.9,28.39,South,180,0.0,0.0,0,0.00,CLR,SKC,0.00,WeatherDisplay:10.37,2013-08-07 12:17:00,
2013-08-07 08:22:00,65.6,99.9,28.39,South,180,0.0,0.0,0,0.00,CLR,SKC,0.00,WeatherDisplay:10.37,2013-08-07 12:22:00,
2013-08-07 08:27:00,66.6,99.9,28.38,South,180,0.0,0.0,0,0.00,CLR,SKC,0.00,WeatherDisplay:10.37,2013-08-07 12:27:00,
2013-08-07 08:32:00,66.6,99.9,28.38,South,180,0.0,0.0,0,0.00,CLR,SKC,0.00,WeatherDisplay:10.37,2013-08-07 12:32:00,
2013-08-07 08:37:00,66.6,99.9,28.38,South,180,0.0,0.0,0,0.00,CLR,SKC,0.00,WeatherDisplay:10.37,2013-08-07 12:37:00,
2013-08-07 08:42:00,67.6,99.9,28.38,East,90,0.0,0.0,0,0.00,CLR,SKC,0.00,WeatherDisplay:10.37,2013-08-07 12:42:00,
2013-08-07 08:47:00,67.6,99.9,28.38,East,90,0.0,0.0,0,0.00,CLR,SKC,0.00,WeatherDisplay:10.37,2013-08-07 12:47:00,
2013-08-07 08:52:00,67.6,99.9,28.38,East,90,0.0,0.0,0,0.00,CLR,SKC,0.00,WeatherDisplay:10.37,2013-08-07 12:52:00,
2013-08-07 08:57:00,67.6,99.9,28.39,East,90,0.0,0.0,0,0.00,CLR,SKC,0.00,WeatherDisplay:10.37,2013-08-07 12:57:00,
2013-08-07 09:02:00,67.6,99.9,28.39,East,90,0.0,0.0,0,0.00,CLR,SKC,0.00,WeatherDisplay:10.37,2013-08-07 13:02:00,
2013-08-07 09:07:00,67.6,99.9,28.38,East,90,0.0,0.0,0,0.00,CLR,SKC,0.00,WeatherDisplay:10.37,2013-08-07 13:07:00,
2013-08-07 09:12:00,68.6,99.9,28.38,East,90,0.0,0.0,0,0.00,CLR,SKC,0.00,WeatherDisplay:10.37,2013-08-07 13:12:00,
2013-08-07 09:17:00,68.6,99.9,28.38,East,90,0.0,0.0,0,0.00,CLR,SKC,0.00,WeatherDisplay:10.37,2013-08-07 13:17:00,
2013-08-07 09:22:00,68.6,99.9,28.38,East,90,0.0,3.5,0,0.00,CLR,SKC,0.00,WeatherDisplay:10.37,2013-08-07 13:22:00,
2013-08-07 09:27:00,68.6,99.9,28.38,East,90,0.0,0.0,0,0.00,CLR,SKC,0.00,WeatherDisplay:10.37,2013-08-07 13:27:00,
2013-08-07 09:32:00,68.6,99.9,28.38,East,90,0.0,0.0,0,0.00,CLR,SKC,0.00,WeatherDisplay:10.37,2013-08-07 13:32:00,
2013-08-07 09:37:00,68.6,99.9,28.38,East,90,0.0,0.0,0,0.00,CLR,SKC,0.00,WeatherDisplay:10.37,2013-08-07 13:37:00,
2013-08-07 09:42:00,68.6,99.9,28.38,East,90,0.0,0.0,0,0.00,CLR,SKC,0.00,WeatherDisplay:10.37,2013-08-07 13:42:00,
2013-08-07 09:47:00,69.6,99.9,28.39,East,90,0.0,0.0,0,0.00,CLR,SKC,0.00,WeatherDisplay:10.37,2013-08-07 13:47:00,
2013-08-07 09:52:00,70.6,99.9,28.39,East,90,1.0,3.5,0,0.00,CLR,SKC,0.00,WeatherDisplay:10.37,2013-08-07 13:52:00,
2013-08-07 09:57:00,70.6,35.0,28.39,SSE,157,0.0,3.5,27,0.00,CLR,SKC,0.00,WeatherDisplay:10.37,2013-08-07 13:57:00,
2013-08-07 10:02:00,70.6,44.4,28.39,SE,135,0.7,0.0,39,0.00,CLR,SKC,0.00,WeatherDisplay:10.37,2013-08-07 14:02:00,
2013-08-07 10:07:00,70.6,48.8,28.38,SE,135,0.0,3.5,46,0.00,CLR,SKC,0.00,WeatherDisplay:10.37,2013-08-07 14:07:00,
2013-08-07 10:12:00,70.6,55.1,28.38,SE,135,0.0,0.0,58,0.00,CLR,SKC,0.00,WeatherDisplay:10.37,2013-08-07 14:12:00,
2013-08-07 10:17:00,70.6,59.5,28.38,SE,135,0.0,1.0,68,0.00,CLR,SKC,0.00,WeatherDisplay:10.37,2013-08-07 14:17:00,
2013-08-07 10:22:00,70.6,60.4,28.38,SE,135,0.0,0.0,70,0.00,CLR,SKC,0.00,WeatherDisplay:10.37,2013-08-07 14:22:00,
2013-08-07 10:27:00,69.6,59.8,28.38,SE,135,2.3,3.5,71,0.00,CLR,SKC,0.00,WeatherDisplay:10.37,2013-08-07 14:27:00,
2013-08-07 10:32:00,69.6,60.6,28.38,ESE,112,2.1,3.5,73,0.00,CLR,SKC,0.00,WeatherDisplay:10.37,2013-08-07 14:32:00,
2013-08-07 10:37:00,69.6,61.0,28.38,ESE,112,1.7,3.5,74,0.00,CLR,SKC,0.00,WeatherDisplay:10.37,2013-08-07 14:37:00,
2013-08-07 10:42:00,70.6,62.3,28.38,ESE,112,0.0,2.0,75,0.00,CLR,SKC,0.00,WeatherDisplay:10.37,2013-08-07 14:42:00,
2013-08-07 10:47:00,70.6,62.3,28.38,ESE,112,1.6,3.5,75,0.00,CLR,SKC,0.00,WeatherDisplay:10.37,2013-08-07 14:47:00,
2013-08-07 10:52:00,70.6,62.7,28.38,ESE,112,1.0,3.5,76,0.00,CLR,SKC,0.00,WeatherDisplay:10.37,2013-08-07 14:52:00,
2013-08-07 10:57:00,69.6,61.7,28.39,ESE,112,0.7,3.5,76,0.00,CLR,SKC,0.00,WeatherDisplay:10.37,2013-08-07 14:57:00,
2013-08-07 11:02:00,69.6,61.7,28.39,ESE,112,2.8,3.5,76,0.00,CLR,SKC,0.00,WeatherDisplay:10.37,2013-08-07 15:02:00,
2013-08-07 11:07:00,70.6,63.1,28.39,ESE,112,1.4,3.5,77,0.00,CLR,SKC,0.00,WeatherDisplay:10.37,2013-08-07 15:07:00,
2013-08-07 11:12:00,69.6,62.1,28.39,ESE,112,2.8,4.0,77,0.00,CLR,SKC,0.00,WeatherDisplay:10.37,2013-08-07 15:12:00,
2013-08-07 11:17:00,70.6,63.4,28.39,ESE,112,2.8,4.0,78,0.00,CLR,SKC,0.00,WeatherDisplay:10.37,2013-08-07 15:17:00,
2013-08-07 11:22:00,70.6,63.1,28.39,ESE,112,1.8,3.5,77,0.00,CLR,SKC,0.00,WeatherDisplay:10.37,2013-08-07 15:22:00,
2013-08-07 11:27:00,69.6,62.5,28.39,ESE,112,0.2,3.0,78,0.00,CLR,SKC,0.00,WeatherDisplay:10.37,2013-08-07 15:27:00,
2013-08-07 11:32:00,69.6,62.5,28.39,ESE,112,2.6,4.0,78,0.00,CLR,SKC,0.00,WeatherDisplay:10.37,2013-08-07 15:32:00,
2013-08-07 11:37:00,69.6,62.5,28.39,ESE,112,3.2,3.5,78,0.00,CLR,SKC,0.00,WeatherDisplay:10.37,2013-08-07 15:37:00,
2013-08-07 11:42:00,69.6,63.2,28.39,ESE,112,3.6,4.0,80,0.00,CLR,SKC,0.00,WeatherDisplay:10.37,2013-08-07 15:42:00,
2013-08-07 11:47:00,70.6,64.1,28.39,ESE,112,2.3,3.5,80,0.00,CLR,SKC,0.00,WeatherDisplay:10.37,2013-08-07 15:47:00,
2013-08-07 11:52:00,70.6,63.8,28.39,ESE,112,3.3,4.0,79,0.00,CLR,SKC,0.00,WeatherDisplay:10.37,2013-08-07 15:52:00,
2013-08-07 11:57:00,70.6,63.8,28.39,ESE,112,0.0,3.5,79,0.00,CLR,SKC,0.00,WeatherDisplay:10.37,2013-08-07 15:57:00,
2013-08-07 12:02:00,70.6,63.8,28.39,ESE,112,0.0,2.3,79,0.00,CLR,SKC,0.00,WeatherDisplay:10.37,2013-08-07 16:02:00,
2013-08-07 12:07:00,70.6,63.4,28.39,ESE,112,3.5,4.0,78,0.00,CLR,SKC,0.00,WeatherDisplay:10.37,2013-08-07 16:07:00,
2013-08-07 12:12:00,69.6,62.8,28.39,ESE,112,3.4,4.0,79,0.00,CLR,SKC,0.00,WeatherDisplay:10.37,2013-08-07 16:12:00,
2013-08-07 12:17:00,69.6,63.2,28.39,ESE,112,0.9,3.5,80,0.00,CLR,SKC,0.00,WeatherDisplay:10.37,2013-08-07 16:17:00,
2013-08-07 12:22:00,70.6,64.1,28.39,ESE,112,1.1,3.5,80,0.00,CLR,SKC,0.00,WeatherDisplay:10.37,2013-08-07 16:22:00,
2013-08-07 12:27:00,70.6,64.1,28.39,SE,135,1.8,4.0,80,0.00,CLR,SKC,0.00,WeatherDisplay:10.37,2013-08-07 16:27:00,
2013-08-07 12:32:00,71.6,65.1,28.39,SE,135,3.7,4.6,80,0.00,CLR,SKC,0.00,WeatherDisplay:10.37,2013-08-07 16:32:00,
2013-08-07 12:37:00,71.6,65.1,28.38,SE,135,4.4,7.0,80,0.00,CLR,SKC,0.00,WeatherDisplay:10.37,2013-08-07 16:37:00,
2013-08-07 12:42:00,71.6,64.4,28.38,SE,135,0.3,3.5,78,0.00,CLR,SKC,0.00,WeatherDisplay:10.37,2013-08-07 16:42:00,
2013-08-07 12:47:00,72.6,65.0,28.38,SE,135,2.9,4.6,77,0.00,CLR,SKC,0.00,WeatherDisplay:10.37,2013-08-07 16:47:00,
2013-08-07 12:52:00,72.6,65.4,28.38,ESE,112,1.7,3.5,78,0.00,CLR,SKC,0.00,WeatherDisplay:10.37,2013-08-07 16:52:00,
2013-08-07 12:57:00,72.6,65.4,28.38,ESE,112,1.3,3.5,78,0.00,CLR,SKC,0.00,WeatherDisplay:10.37,2013-08-07 16:57:00,
2013-08-07 13:02:00,72.6,65.4,28.38,ESE,112,3.1,4.0,78,0.00,CLR,SKC,0.00,WeatherDisplay:10.37,2013-08-07 17:02:00,
2013-08-07 13:07:00,72.6,65.0,28.38,ESE,112,0.3,5.0,77,0.00,CLR,SKC,0.00,WeatherDisplay:10.37,2013-08-07 17:07:00,
2013-08-07 13:12:00,72.6,65.0,28.38,ESE,112,3.4,3.5,77,0.00,CLR,SKC,0.00,WeatherDisplay:10.37,2013-08-07 17:12:00,
2013-08-07 13:17:00,72.6,64.6,28.38,ESE,112,0.1,1.2,76,0.00,CLR,SKC,0.00,WeatherDisplay:10.37,2013-08-07 17:17:00,
2013-08-07 13:22:00,72.6,65.0,28.38,ENE,67,0.0,0.0,77,0.00,CLR,SKC,0.00,WeatherDisplay:10.37,2013-08-07 17:22:00,
2013-08-07 13:27:00,72.6,65.0,28.39,ESE,112,0.0,0.0,77,0.00,CLR,SKC,0.00,WeatherDisplay:10.37,2013-08-07 17:27:00,
2013-08-07 13:32:00,73.6,67.1,28.39,ESE,112,3.4,3.5,80,0.00,CLR,SKC,0.00,WeatherDisplay:10.37,2013-08-07 17:32:00,
2013-08-07 13:37:00,72.6,65.4,28.38,ESE,112,0.3,3.5,78,0.00,CLR,SKC,0.00,WeatherDisplay:10.37,2013-08-07 17:37:00,
2013-08-07 13:42:00,72.6,64.6,28.38,ESE,112,2.1,3.5,76,0.00,CLR,SKC,0.00,WeatherDisplay:10.37,2013-08-07 17:42:00,
2013-08-07 13:47:00,71.6,64.4,28.38,ESE,112,1.2,3.5,78,0.00,CLR,SKC,0.00,WeatherDisplay:10.37,2013-08-07 17:47:00,
2013-08-07 13:52:00,71.6,64.4,28.38,ESE,112,2.5,3.5,78,0.00,CLR,SKC,0.00,WeatherDisplay:10.37,2013-08-07 17:52:00,
2013-08-07 13:57:00,71.6,64.8,28.38,ESE,112,2.8,4.0,79,0.00,CLR,SKC,0.00,WeatherDisplay:10.37,2013-08-07 17:57:00,
2013-08-07 14:02:00,72.6,65.4,28.38,ESE,112,4.1,4.6,78,0.00,CLR,SKC,0.00,WeatherDisplay:10.37,2013-08-07 18:02:00,
2013-08-07 14:07:00,72.6,65.7,28.39,ESE,112,3.5,4.6,79,0.00,CLR,SKC,0.00,WeatherDisplay:10.37,2013-08-07 18:07:00,
2013-08-07 14:12:00,72.6,65.0,28.39,ESE,112,2.2,3.5,77,0.00,CLR,SKC,0.00,WeatherDisplay:10.37,2013-08-07 18:12:00,
2013-08-07 14:17:00,72.6,65.4,28.39,ESE,112,2.1,4.6,78,0.00,CLR,SKC,0.00,WeatherDisplay:10.37,2013-08-07 18:17:00,
2013-08-07 14:22:00,72.6,65.4,28.39,ESE,112,2.1,5.0,78,0.00,CLR,SKC,0.00,WeatherDisplay:10.37,2013-08-07 18:22:00,
2013-08-07 14:27:00,72.6,64.2,28.39,SE,135,1.2,3.5,75,0.00,CLR,SKC,0.00,WeatherDisplay:10.37,2013-08-07 18:27:00,
2013-08-07 14:32:00,72.6,63.9,28.39,ESE,112,2.8,3.5,74,0.00,CLR,SKC,0.00,WeatherDisplay:10.37,2013-08-07 18:32:00,
2013-08-07 14:37:00,72.6,64.2,28.38,ESE,112,2.9,3.5,75,0.00,CLR,SKC,0.00,WeatherDisplay:10.37,2013-08-07 18:37:00,
2013-08-07 14:42:00,72.6,64.2,28.38,SSE,157,3.2,5.0,75,0.00,CLR,SKC,0.00,WeatherDisplay:10.37,2013-08-07 18:42:00,
2013-08-07 14:47:00,72.6,63.5,28.38,ESE,112,3.7,4.6,73,0.00,CLR,SKC,0.00,WeatherDisplay:10.37,2013-08-07 18:47:00,
2013-08-07 14:52:00,72.6,64.2,28.38,SSE,157,0.6,4.0,75,0.00,CLR,SKC,0.00,WeatherDisplay:10.37,2013-08-07 18:52:00,
2013-08-07 14:57:00,72.6,62.3,28.38,SSE,157,2.9,5.8,70,0.00,CLR,SKC,0.00,WeatherDisplay:10.37,2013-08-07 18:57:00,
2013-08-07 15:02:00,72.6,61.9,28.38,ESE,112,3.7,5.8,69,0.00,CLR,SKC,0.00,WeatherDisplay:10.37,2013-08-07 19:02:00,
2013-08-07 15:07:00,72.6,62.3,28.38,SE,135,2.2,4.0,70,0.00,CLR,SKC,0.00,WeatherDisplay:10.37,2013-08-07 19:07:00,
2013-08-07 15:12:00,72.6,62.3,28.38,ESE,112,1.7,3.5,70,0.00,CLR,SKC,0.00,WeatherDisplay:10.37,2013-08-07 19:12:00,
2013-08-07 15:17:00,72.6,63.5,28.38,ESE,112,4.0,4.6,73,0.00,CLR,SKC,0.00,WeatherDisplay:10.37,2013-08-07 19:17:00,
2013-08-07 15:22:00,72.6,64.2,28.38,SE,135,2.2,4.0,75,0.00,CLR,SKC,0.00,WeatherDisplay:10.37,2013-08-07 19:22:00,
2013-08-07 15:27:00,72.6,65.0,28.38,ESE,112,4.0,4.6,77,0.00,CLR,SKC,0.00,WeatherDisplay:10.37,2013-08-07 19:27:00,
2013-08-07 15:32:00,72.6,63.9,28.38,ESE,112,4.9,5.8,74,0.00,CLR,SKC,0.00,WeatherDisplay:10.37,2013-08-07 19:32:00,
2013-08-07 15:37:00,72.6,63.1,28.38,ESE,112,1.9,3.5,72,0.00,CLR,SKC,0.00,WeatherDisplay:10.37,2013-08-07 19:37:00,
2013-08-07 15:42:00,72.6,63.5,28.38,ESE,112,2.4,3.5,73,0.00,CLR,SKC,0.00,WeatherDisplay:10.37,2013-08-07 19:42:00,
2013-08-07 15:47:00,72.6,64.2,28.38,ESE,112,3.5,3.5,75,0.00,CLR,SKC,0.00,WeatherDisplay:10.37,2013-08-07 19:47:00,
2013-08-07 15:52:00,72.6,63.1,28.38,ESE,112,4.2,6.9,72,0.00,CLR,SKC,0.00,WeatherDisplay:10.37,2013-08-07 19:52:00,
2013-08-07 15:57:00,71.6,61.3,28.38,SE,135,2.8,4.6,70,0.00,CLR,SKC,0.00,WeatherDisplay:10.37,2013-08-07 19:57:00,
2013-08-07 16:02:00,71.6,61.3,28.38,ESE,112,3.4,5.8,70,0.00,CLR,SKC,0.00,WeatherDisplay:10.37,2013-08-07 20:02:00,
2013-08-07 16:07:00,71.6,61.3,28.37,SSE,157,2.8,4.6,70,0.00,CLR,SKC,0.00,WeatherDisplay:10.37,2013-08-07 20:07:00,
2013-08-07 16:12:00,71.6,59.2,28.37,SSE,157,4.7,5.8,65,0.00,CLR,SKC,0.00,WeatherDisplay:10.37,2013-08-07 20:12:00,
2013-08-07 16:17:00,71.6,59.2,28.38,SSE,157,4.2,6.9,65,0.00,CLR,SKC,0.00,WeatherDisplay:10.37,2013-08-07 20:17:00,
2013-08-07 16:22:00,71.6,60.5,28.38,ESE,112,4.0,5.8,68,0.00,CLR,SKC,0.00,WeatherDisplay:10.37,2013-08-07 20:22:00,
2013-08-07 16:27:00,70.6,60.0,28.37,SE,135,1.6,3.5,69,0.00,CLR,SKC,0.00,WeatherDisplay:10.37,2013-08-07 20:27:00,
2013-08-07 16:32:00,70.6,57.0,28.37,SSW,202,5.6,10.4,62,0.00,CLR,SKC,0.00,WeatherDisplay:10.37,2013-08-07 20:32:00,
2013-08-07 16:37:00,70.6,57.8,28.38,South,180,5.3,6.9,64,0.00,CLR,SKC,0.00,WeatherDisplay:10.37,2013-08-07 20:37:00,
2013-08-07 16:42:00,70.6,57.0,28.38,SE,135,3.8,9.2,62,0.00,CLR,SKC,0.00,WeatherDisplay:10.37,2013-08-07 20:42:00,
2013-08-07 16:47:00,70.6,57.8,28.38,South,180,6.4,11.5,64,0.00,CLR,SKC,0.00,WeatherDisplay:10.37,2013-08-07 20:47:00,
2013-08-07 16:52:00,70.6,59.5,28.38,ESE,112,4.2,5.8,68,0.00,CLR,SKC,0.00,WeatherDisplay:10.37,2013-08-07 20:52:00,
2013-08-07 16:57:00,70.6,60.4,28.37,ESE,112,3.5,4.6,70,0.00,CLR,SKC,0.00,WeatherDisplay:10.37,2013-08-07 20:57:00,
2013-08-07 17:02:00,70.6,60.4,28.37,SE,135,3.7,5.0,70,0.00,CLR,SKC,0.00,WeatherDisplay:10.37,2013-08-07 21:02:00,
2013-08-07 17:07:00,69.6,59.4,28.37,SSE,157,3.8,5.8,70,0.00,CLR,SKC,0.00,WeatherDisplay:10.37,2013-08-07 21:07:00,
2013-08-07 17:12:00,69.6,61.3,28.37,SE,135,2.4,3.5,75,0.00,CLR,SKC,0.00,WeatherDisplay:10.37,2013-08-07 21:12:00,
2013-08-07 17:17:00,69.6,61.7,28.37,SSE,157,3.5,4.6,76,0.00,CLR,SKC,0.00,WeatherDisplay:10.37,2013-08-07 21:17:00,
2013-08-07 17:22:00,69.6,62.1,28.37,SSE,157,1.4,3.5,77,0.00,CLR,SKC,0.00,WeatherDisplay:10.37,2013-08-07 21:22:00,
2013-08-07 17:27:00,69.6,62.5,28.37,SSE,157,2.3,3.5,78,0.00,CLR,SKC,0.00,WeatherDisplay:10.37,2013-08-07 21:27:00,
2013-08-07 17:32:00,69.6,61.3,28.37,SSE,157,3.1,6.0,75,0.00,CLR,SKC,0.00,WeatherDisplay:10.37,2013-08-07 21:32:00,
2013-08-07 17:37:00,69.6,59.8,28.37,SSW,202,4.1,5.0,71,0.00,CLR,SKC,0.00,WeatherDisplay:10.37,2013-08-07 21:37:00,
2013-08-07 17:42:00,69.6,60.2,28.37,SSE,157,4.0,8.1,72,0.00,CLR,SKC,0.00,WeatherDisplay:10.37,2013-08-07 21:42:00,
2013-08-07 17:47:00,69.6,61.0,28.37,South,180,5.9,11.5,74,0.00,CLR,SKC,0.00,WeatherDisplay:10.37,2013-08-07 21:47:00,
2013-08-07 17:52:00,68.6,59.6,28.37,South,180,4.3,5.8,73,0.00,CLR,SKC,0.00,WeatherDisplay:10.37,2013-08-07 21:52:00,
2013-08-07 17:57:00,68.6,59.2,28.36,SSW,202,5.2,8.1,72,0.00,CLR,SKC,0.00,WeatherDisplay:10.37,2013-08-07 21:57:00,
2013-08-07 18:02:00,68.6,59.2,28.36,SSE,157,3.7,5.8,72,0.00,CLR,SKC,0.00,WeatherDisplay:10.37,2013-08-07 22:02:00,
2013-08-07 18:07:00,68.6,60.0,28.36,South,180,3.8,5.8,74,0.00,CLR,SKC,0.00,WeatherDisplay:10.37,2013-08-07 22:07:00,
2013-08-07 18:12:00,68.6,60.7,28.36,SSE,157,2.1,3.5,76,0.00,CLR,SKC,0.00,WeatherDisplay:10.37,2013-08-07 22:12:00,
2013-08-07 18:17:00,68.6,61.5,28.36,SE,135,3.5,4.6,78,0.00,CLR,SKC,0.00,WeatherDisplay:10.37,2013-08-07 22:17:00,
2013-08-07 18:22:00,68.6,60.7,28.36,SSE,157,2.8,3.5,76,0.00,CLR,SKC,0.00,WeatherDisplay:10.37,2013-08-07 22:22:00,
2013-08-07 18:27:00,68.6,61.8,28.36,SSE,157,2.4,5.8,79,0.00,CLR,SKC,0.00,WeatherDisplay:10.37,2013-08-07 22:27:00,
2013-08-07 18:32:00,68.6,61.5,28.36,SE,135,3.1,4.0,78,0.00,CLR,SKC,0.00,WeatherDisplay:10.37,2013-08-07 22:32:00,
2013-08-07 18:37:00,67.6,60.5,28.36,SSE,157,0.1,3.0,78,0.00,CLR,SKC,0.00,WeatherDisplay:10.37,2013-08-07 22:37:00,
2013-08-07 18:42:00,67.6,60.5,28.36,SE,135,0.0,3.5,78,0.00,CLR,SKC,0.00,WeatherDisplay:10.37,2013-08-07 22:42:00,
2013-08-07 18:47:00,67.6,61.6,28.36,SE,135,0.0,0.0,81,0.00,CLR,SKC,0.00,WeatherDisplay:10.37,2013-08-07 22:47:00,
2013-08-07 18:52:00,67.6,61.9,28.36,SSE,157,0.2,2.0,82,0.00,CLR,SKC,0.00,WeatherDisplay:10.37,2013-08-07 22:52:00,
2013-08-07 18:57:00,66.6,60.6,28.36,SE,135,1.1,3.5,81,0.00,CLR,SKC,0.00,WeatherDisplay:10.37,2013-08-07 22:57:00,
2013-08-07 19:02:00,66.6,61.0,28.36,SE,135,0.0,0.0,82,0.00,CLR,SKC,0.00,WeatherDisplay:10.37,2013-08-07 23:02:00,
2013-08-07 19:07:00,66.6,61.3,28.36,SSE,157,1.9,3.5,83,0.00,CLR,SKC,0.00,WeatherDisplay:10.37,2013-08-07 23:07:00,
2013-08-07 19:12:00,66.6,61.3,28.36,SE,135,2.0,3.5,83,0.00,CLR,SKC,0.00,WeatherDisplay:10.37,2013-08-07 23:12:00,
2013-08-07 19:17:00,66.6,61.6,28.36,SSE,157,2.7,3.5,84,0.00,CLR,SKC,0.00,WeatherDisplay:10.37,2013-08-07 23:17:00,
2013-08-07 19:22:00,66.6,62.0,28.36,SSE,157,1.2,3.5,85,0.00,CLR,SKC,0.00,WeatherDisplay:10.37,2013-08-07 23:22:00,
2013-08-07 19:27:00,65.6,61.3,28.36,SE,135,0.4,3.5,86,0.00,CLR,SKC,0.00,WeatherDisplay:10.37,2013-08-07 23:27:00,
2013-08-07 19:32:00,65.6,61.3,28.36,SSE,157,0.9,3.5,86,0.00,CLR,SKC,0.00,WeatherDisplay:10.37,2013-08-07 23:32:00,
2013-08-07 19:37:00,65.6,61.6,28.35,SE,135,0.0,0.0,87,0.00,CLR,SKC,0.00,WeatherDisplay:10.37,2013-08-07 23:37:00,
2013-08-07 19:42:00,65.6,61.6,28.35,SSE,157,0.0,3.5,87,0.00,CLR,SKC,0.00,WeatherDisplay:10.37,2013-08-07 23:42:00,
2013-08-07 19:47:00,65.6,61.6,28.35,SSE,157,1.1,3.5,87,0.00,CLR,SKC,0.00,WeatherDisplay:10.37,2013-08-07 23:47:00,
2013-08-07 19:52:00,65.6,61.6,28.35,SSE,157,0.5,3.5,87,0.00,CLR,SKC,0.00,WeatherDisplay:10.37,2013-08-07 23:52:00,
2013-08-07 19:57:00,65.6,61.3,28.34,SSE,157,0.0,0.0,86,0.00,CLR,SKC,0.00,WeatherDisplay:10.37,2013-08-07 23:57:00,
2013-08-07 20:02:00,65.6,61.3,28.34,South,180,1.9,4.6,86,0.00,CLR,SKC,0.00,WeatherDisplay:10.37,2013-08-08 00:02:00,
2013-08-07 20:07:00,64.6,59.7,28.35,SSE,157,1.2,3.5,84,0.00,CLR,SKC,0.00,WeatherDisplay:10.37,2013-08-08 00:07:00,
2013-08-07 20:12:00,64.6,59.3,28.35,SSE,157,0.0,0.0,83,0.00,CLR,SKC,0.00,WeatherDisplay:10.37,2013-08-08 00:12:00,
2013-08-07 20:17:00,64.6,59.0,28.35,SSE,157,0.0,0.0,82,0.00,CLR,SKC,0.00,WeatherDisplay:10.37,2013-08-08 00:17:00,
2013-08-07 20:22:00,64.6,59.0,28.35,SSE,157,0.0,0.0,82,0.00,CLR,SKC,0.00,WeatherDisplay:10.37,2013-08-08 00:22:00,
2013-08-07 20:27:00,64.6,58.7,28.35,SSE,157,0.0,0.0,81,0.00,CLR,SKC,0.00,WeatherDisplay:10.37,2013-08-08 00:27:00,
2013-08-07 20:32:00,64.6,58.3,28.35,SSE,157,0.2,2.3,80,0.00,CLR,SKC,0.00,WeatherDisplay:10.37,2013-08-08 00:32:00,
2013-08-07 20:37:00,64.6,58.0,28.35,SSE,157,0.0,0.0,79,0.00,CLR,SKC,0.00,WeatherDisplay:10.37,2013-08-08 00:37:00,
2013-08-07 20:42:00,64.6,58.0,28.35,SSE,157,0.0,0.0,79,0.00,CLR,SKC,0.00,WeatherDisplay:10.37,2013-08-08 00:42:00,
2013-08-07 20:47:00,63.6,57.0,28.36,SSE,157,0.0,0.0,79,0.00,CLR,SKC,0.00,WeatherDisplay:10.37,2013-08-08 00:47:00,
2013-08-07 20:52:00,63.6,57.0,28.36,SSE,157,0.0,0.0,79,0.00,CLR,SKC,0.00,WeatherDisplay:10.37,2013-08-08 00:52:00,
2013-08-07 20:57:00,63.6,57.0,28.36,SSE,157,0.0,0.0,79,0.00,CLR,SKC,0.00,WeatherDisplay:10.37,2013-08-08 00:57:00,
2013-08-07 21:02:00,63.6,57.0,28.36,SSE,157,0.0,0.0,79,0.00,CLR,SKC,0.00,WeatherDisplay:10.37,2013-08-08 01:02:00,
2013-08-07 21:07:00,63.6,57.0,28.36,SSE,157,0.0,0.0,79,0.00,CLR,SKC,0.00,WeatherDisplay:10.37,2013-08-08 01:07:00,
2013-08-07 21:12:00,62.6,56.0,28.36,SSE,157,0.0,0.0,79,0.00,CLR,SKC,0.00,WeatherDisplay:10.37,2013-08-08 01:12:00,
2013-08-07 21:17:00,63.6,56.6,28.37,SSE,157,0.0,0.0,78,0.00,CLR,SKC,0.00,WeatherDisplay:10.37,2013-08-08 01:17:00,
2013-08-07 21:22:00,62.6,55.7,28.37,SSE,157,0.0,0.0,78,0.00,CLR,SKC,0.00,WeatherDisplay:10.37,2013-08-08 01:22:00,
2013-08-07 21:27:00,62.6,55.7,28.36,SSE,157,0.0,0.0,78,0.00,CLR,SKC,0.00,WeatherDisplay:10.37,2013-08-08 01:27:00,
2013-08-07 21:32:00,62.6,55.3,28.36,SSE,157,0.0,0.0,77,0.00,CLR,SKC,0.00,WeatherDisplay:10.37,2013-08-08 01:32:00,
2013-08-07 21:37:00,61.6,54.3,28.37,SSE,157,0.0,0.0,77,0.00,CLR,SKC,0.00,WeatherDisplay:10.37,2013-08-08 01:37:00,
2013-08-07 21:42:00,61.6,54.3,28.37,SSE,157,0.0,0.0,77,0.00,CLR,SKC,0.00,WeatherDisplay:10.37,2013-08-08 01:42:00,
2013-08-07 21:47:00,61.6,54.3,28.37,SSE,157,0.0,0.0,77,0.00,CLR,SKC,0.00,WeatherDisplay:10.37,2013-08-08 01:47:00,
2013-08-07 21:52:00,61.6,54.3,28.37,SSE,157,0.0,0.0,77,0.00,CLR,SKC,0.00,WeatherDisplay:10.37,2013-08-08 01:52:00,
2013-08-07 21:57:00,61.6,54.3,28.37,SSE,157,0.0,0.0,77,0.00,CLR,SKC,0.00,WeatherDisplay:10.37,2013-08-08 01:57:00,
2013-08-07 22:02:00,61.6,54.3,28.37,SE,135,0.0,0.0,77,0.00,CLR,SKC,0.00,WeatherDisplay:10.37,2013-08-08 02:02:00,
2013-08-07 22:07:00,61.6,54.3,28.36,SE,135,0.0,0.0,77,0.00,CLR,SKC,0.00,WeatherDisplay:10.37,2013-08-08 02:07:00,
2013-08-07 22:12:00,61.6,54.0,28.36,SE,135,0.0,0.0,76,0.00,CLR,SKC,0.00,WeatherDisplay:10.37,2013-08-08 02:12:00,
2013-08-07 22:17:00,62.6,54.6,28.36,SE,135,0.0,0.0,75,0.00,CLR,SKC,0.00,WeatherDisplay:10.37,2013-08-08 02:17:00,
2013-08-07 22:22:00,61.6,52.9,28.36,SE,135,0.0,0.0,73,0.00,CLR,SKC,0.00,WeatherDisplay:10.37,2013-08-08 02:22:00,
2013-08-07 22:27:00,61.6,52.5,28.36,SE,135,0.0,0.0,72,0.00,CLR,SKC,0.00,WeatherDisplay:10.37,2013-08-08 02:27:00,
2013-08-07 22:32:00,62.6,52.7,28.36,SSE,157,0.0,0.0,70,0.00,CLR,SKC,0.00,WeatherDisplay:10.37,2013-08-08 02:32:00,
2013-08-07 22:37:00,62.6,52.3,28.36,SSE,157,0.0,0.0,69,0.00,CLR,SKC,0.00,WeatherDisplay:10.37,2013-08-08 02:37:00,
2013-08-07 22:42:00,62.6,51.9,28.36,SSE,157,0.0,0.0,68,0.00,CLR,SKC,0.00,WeatherDisplay:10.37,2013-08-08 02:42:00,
2013-08-07 22:47:00,62.6,51.1,28.35,SSE,157,0.0,0.0,66,0.00,CLR,SKC,0.00,WeatherDisplay:10.37,2013-08-08 02:47:00,
2013-08-07 22:52:00,62.6,50.3,28.35,SSE,157,0.0,0.0,64,0.00,CLR,SKC,0.00,WeatherDisplay:10.37,2013-08-08 02:52:00,
2013-08-07 22:57:00,62.6,49.4,28.36,SSE,157,0.0,0.0,62,0.00,CLR,SKC,0.00,WeatherDisplay:10.37,2013-08-08 02:57:00,
2013-08-07 23:02:00,62.6,48.1,28.36,SSE,157,0.0,0.0,59,0.00,CLR,SKC,0.00,WeatherDisplay:10.37,2013-08-08 03:02:00,
2013-08-07 23:07:00,62.6,47.2,28.36,SSE,157,0.0,0.0,57,0.00,CLR,SKC,0.00,WeatherDisplay:10.37,2013-08-08 03:07:00,
2013-08-07 23:12:00,62.6,46.7,28.36,SSE,157,0.0,0.0,56,0.00,CLR,SKC,0.00,WeatherDisplay:10.37,2013-08-08 03:12:00,
2013-08-07 23:17:00,62.6,46.2,28.36,SSE,157,0.0,0.0,55,0.00,CLR,SKC,0.00,WeatherDisplay:10.37,2013-08-08 03:17:00,
2013-08-07 23:22:00,62.6,45.7,28.36,SSE,157,0.0,0.0,54,0.00,CLR,SKC,0.00,WeatherDisplay:10.37,2013-08-08 03:22:00,
2013-08-07 23:27:00,61.6,44.8,28.36,SSE,157,0.0,0.0,54,0.00,CLR,SKC,0.00,WeatherDisplay:10.37,2013-08-08 03:27:00,
2013-08-07 23:32:00,61.6,44.8,28.36,SSE,157,0.0,0.0,54,0.00,CLR,SKC,0.00,WeatherDisplay:10.37,2013-08-08 03:32:00,
2013-08-07 23:37:00,61.6,44.8,28.36,SSE,157,0.0,0.0,54,0.00,CLR,SKC,0.00,WeatherDisplay:10.37,2013-08-08 03:37:00,
2013-08-07 23:42:00,61.6,44.3,28.36,SSE,157,0.0,0.0,53,0.00,CLR,SKC,0.00,WeatherDisplay:10.37,2013-08-08 03:42:00,
2013-08-07 23:47:00,61.6,43.8,28.36,SSE,157,0.0,0.0,52,0.00,CLR,SKC,0.00,WeatherDisplay:10.37,2013-08-08 03:47:00,
2013-08-07 23:52:00,61.6,43.8,28.36,SSE,157,0.0,0.0,52,0.00,CLR,SKC,0.00,WeatherDisplay:10.37,2013-08-08 03:52:00,
2013-08-07 23:57:00,61.6,43.3,28.35,SSE,157,0.0,0.0,51,0.00,CLR,SKC,0.00,WeatherDisplay:10.37,2013-08-08 03:57:00,